When you browse on this site, cookies collect data to enhance your experience and personalize the content and advertising you see.
Visit our Privacy Policy to learn more. By continuing to use the site, you agree to this use of cookies and data.
  • In Hungary
  • List of Countries
  • For 7 days
  • Water Temperature
  • Weather Map
  • News
  • Weather Widgets
  • user-avatar
    Login

    Hourly Weather Yuba City

    Today, 6 December, Friday

    Time Temperature Precipitation Wind Pressure Humidity
    00:00 +12°C° 0 mm 1 mps 762 mmHg 86%
    01:00 +12°C° 0 mm 2 mps 762 mmHg 84%
    02:00 +12°C° 0 mm 2 mps 762 mmHg 83%
    03:00 +12°C° 0 mm 1 mps 762 mmHg 81%
    04:00 +12°C° 0 mm 1 mps 762 mmHg 79%
    05:00 +12°C° 0 mm 1 mps 762 mmHg 79%
    06:00 +11°C° 0 mm 1 mps 762 mmHg 79%
    07:00 +11°C° 0 mm 1 mps 761 mmHg 79%
    08:00 +12°C° 0 mm 1 mps 761 mmHg 74%
    09:00 +13°C° 0 mm 2 mps 762 mmHg 69%
    10:00 +15°C° 0 mm 2 mps 762 mmHg 64%
    11:00 +16°C° 0 mm 3 mps 761 mmHg 63%
    12:00 +17°C° 0 mm 4 mps 760 mmHg 61%
    13:00 +17°C° 0 mm 6 mps 760 mmHg 60%
    14:00 +16°C° 0.2 mm 5 mps 760 mmHg 64%
    15:00 +16°C° 0.2 mm 5 mps 759 mmHg 68%
    16:00 +15°C° 0.2 mm 5 mps 759 mmHg 73%
    17:00 +15°C° 1.4 mm 4 mps 759 mmHg 77%
    18:00 +14°C° 1.4 mm 4 mps 759 mmHg 81%
    19:00 +13°C° 1.4 mm 4 mps 759 mmHg 85%
    20:00 +13°C° 1 mm 6 mps 759 mmHg 84%
    21:00 +12°C° 1 mm 8 mps 759 mmHg 83%
    22:00 +13°C° 1 mm 10 mps 759 mmHg 83%
    23:00 +12°C° 0.9 mm 9 mps 759 mmHg 83%

    Tomorrow, 7 December, Saturday

    Time Temperature Precipitation Wind Pressure Humidity
    00:00 +12°C° 0.9 mm 8 mps 759 mmHg 84%
    01:00 +12°C° 0.9 mm 7 mps 758 mmHg 85%
    02:00 +12°C° 0.8 mm 7 mps 758 mmHg 86%
    03:00 +13°C° 0.8 mm 6 mps 758 mmHg 87%
    04:00 +13°C° 0.8 mm 5 mps 758 mmHg 88%
    05:00 +13°C° 0.3 mm 6 mps 758 mmHg 88%
    06:00 +13°C° 0.3 mm 6 mps 758 mmHg 88%
    07:00 +13°C° 0.3 mm 6 mps 757 mmHg 88%
    08:00 +14°C° 0.3 mm 7 mps 758 mmHg 83%
    09:00 +15°C° 0.3 mm 8 mps 758 mmHg 79%
    10:00 +16°C° 0.3 mm 9 mps 758 mmHg 74%
    11:00 +15°C° 1.9 mm 9 mps 758 mmHg 78%
    12:00 +15°C° 1.9 mm 8 mps 757 mmHg 81%
    13:00 +14°C° 1.9 mm 7 mps 757 mmHg 85%
    14:00 +14°C° 1.9 mm 6 mps 757 mmHg 84%
    15:00 +14°C° 1.9 mm 5 mps 757 mmHg 82%
    16:00 +14°C° 1.9 mm 5 mps 757 mmHg 81%
    17:00 +14°C° 0.4 mm 4 mps 758 mmHg 84%
    18:00 +13°C° 0.4 mm 4 mps 758 mmHg 87%
    19:00 +12°C° 0.4 mm 3 mps 758 mmHg 91%
    20:00 +12°C° 0.7 mm 4 mps 759 mmHg 91%
    21:00 +11°C° 0.7 mm 4 mps 759 mmHg 92%
    22:00 +11°C° 0.7 mm 4 mps 759 mmHg 92%
    23:00 +11°C° 0.9 mm 4 mps 759 mmHg 93%

    Day after tomorrow, 8 December, Sunday

    Time Temperature Precipitation Wind Pressure Humidity
    00:00 +11°C° 0.9 mm 4 mps 760 mmHg 93%
    01:00 +11°C° 0.9 mm 3 mps 760 mmHg 94%
    02:00 +11°C° 0.7 mm 3 mps 760 mmHg 94%
    03:00 +11°C° 0.7 mm 3 mps 760 mmHg 94%
    04:00 +11°C° 0.7 mm 3 mps 760 mmHg 94%
    05:00 +11°C° 0.4 mm 3 mps 760 mmHg 94%
    06:00 +10°C° 0.4 mm 3 mps 761 mmHg 94%
    07:00 +10°C° 0.4 mm 3 mps 761 mmHg 95%
    08:00 +12°C° 0.2 mm 2 mps 761 mmHg 92%
    09:00 +13°C° 0.2 mm 2 mps 762 mmHg 89%
    10:00 +14°C° 0.2 mm 2 mps 762 mmHg 86%
    11:00 +14°C° 0.1 mm 2 mps 762 mmHg 83%
    12:00 +15°C° 0.1 mm 1 mps 762 mmHg 81%
    13:00 +14°C° 0.1 mm 0 mps 762 mmHg 78%
    14:00 +15°C° 0 mm 1 mps 762 mmHg 79%
    15:00 +15°C° 0 mm 1 mps 762 mmHg 80%
    16:00 +14°C° 0 mm 2 mps 762 mmHg 80%
    17:00 +14°C° 0 mm 2 mps 762 mmHg 84%
    18:00 +13°C° 0 mm 2 mps 763 mmHg 87%
    19:00 +12°C° 0 mm 2 mps 763 mmHg 90%
    20:00 +10°C° 0 mm 2 mps 764 mmHg 90%
    21:00 +10°C° 0 mm 2 mps 764 mmHg 90%
    22:00 +10°C° 0 mm 2 mps 765 mmHg 90%
    23:00 +10°C° 0 mm 1 mps 765 mmHg 89%

    9 December, Monday

    Time Temperature Precipitation Wind Pressure Humidity
    00:00 +10°C° 0 mm 1 mps 765 mmHg 89%
    01:00 +9°C° 0 mm 1 mps 765 mmHg 88%
    02:00 +9°C° 0 mm 1 mps 765 mmHg 87%
    03:00 +9°C° 0 mm 1 mps 765 mmHg 87%
    04:00 +8°C° 0 mm 1 mps 765 mmHg 86%
    05:00 +8°C° 0 mm 1 mps 766 mmHg 85%
    06:00 +8°C° 0 mm 1 mps 766 mmHg 85%
    07:00 +8°C° 0 mm 1 mps 766 mmHg 84%
    08:00 +9°C° 0 mm 1 mps 766 mmHg 79%
    09:00 +10°C° 0 mm 1 mps 766 mmHg 73%
    10:00 +11°C° 0 mm 0 mps 766 mmHg 68%
    11:00 +13°C° 0 mm 1 mps 765 mmHg 65%
    12:00 +14°C° 0 mm 1 mps 765 mmHg 62%
    13:00 +15°C° 0 mm 1 mps 764 mmHg 59%
    14:00 +14°C° 0 mm 1 mps 765 mmHg 62%
    15:00 +14°C° 0 mm 1 mps 765 mmHg 65%
    16:00 +13°C° 0 mm 0 mps 765 mmHg 68%
    17:00 +11°C° 0 mm 0 mps 765 mmHg 71%
    18:00 +10°C° 0 mm 0 mps 765 mmHg 74%
    19:00 +9°C° 0 mm 0 mps 766 mmHg 77%
    20:00 +9°C° 0 mm 0 mps 766 mmHg 78%
    21:00 +9°C° 0 mm 0 mps 766 mmHg 79%
    22:00 +8°C° 0 mm 0 mps 766 mmHg 80%
    23:00 +8°C° 0 mm 0 mps 766 mmHg 81%

    10 December, Tuesday

    Time Temperature Precipitation Wind Pressure Humidity
    00:00 +8°C° 0 mm 0 mps 766 mmHg 81%
    01:00 +8°C° 0 mm 0 mps 766 mmHg 81%
    02:00 +7°C° 0 mm 0 mps 766 mmHg 81%
    03:00 +8°C° 0 mm 1 mps 766 mmHg 81%
    04:00 +8°C° 0 mm 1 mps 766 mmHg 81%
    05:00 +8°C° 0 mm 1 mps 767 mmHg 81%
    06:00 +8°C° 0 mm 1 mps 767 mmHg 81%
    07:00 +7°C° 0 mm 1 mps 767 mmHg 82%
    08:00 +9°C° 0 mm 1 mps 767 mmHg 77%
    09:00 +10°C° 0 mm 1 mps 767 mmHg 73%
    10:00 +11°C° 0 mm 1 mps 767 mmHg 68%
    11:00 +12°C° 0 mm 1 mps 766 mmHg 66%
    12:00 +13°C° 0 mm 1 mps 765 mmHg 63%
    13:00 +14°C° 0 mm 1 mps 765 mmHg 61%
    14:00 +14°C° 0 mm 1 mps 765 mmHg 64%
    15:00 +13°C° 0 mm 1 mps 765 mmHg 68%
    16:00 +12°C° 0 mm 0 mps 764 mmHg 71%
    17:00 +12°C° 0 mm 1 mps 765 mmHg 73%
    18:00 +12°C° 0 mm 1 mps 765 mmHg 75%
    19:00 +11°C° 0 mm 1 mps 765 mmHg 77%
    20:00 +11°C° 0 mm 1 mps 765 mmHg 77%
    21:00 +11°C° 0 mm 1 mps 765 mmHg 77%
    22:00 +11°C° 0 mm 1 mps 765 mmHg 77%
    23:00 +11°C° 0 mm 1 mps 765 mmHg 77%

    11 December, Wednesday

    Time Temperature Precipitation Wind Pressure Humidity
    00:00 +11°C° 0 mm 1 mps 765 mmHg 77%
    01:00 +11°C° 0 mm 1 mps 765 mmHg 78%
    02:00 +10°C° 0 mm 1 mps 765 mmHg 80%
    03:00 +10°C° 0 mm 1 mps 765 mmHg 82%
    04:00 +9°C° 0 mm 1 mps 765 mmHg 85%
    05:00 +9°C° 0 mm 1 mps 765 mmHg 85%
    06:00 +8°C° 0 mm 1 mps 765 mmHg 85%
    07:00 +8°C° 0 mm 1 mps 765 mmHg 85%
    08:00 +9°C° 0 mm 2 mps 765 mmHg 80%
    09:00 +10°C° 0 mm 2 mps 765 mmHg 75%
    10:00 +12°C° 0 mm 2 mps 765 mmHg 69%
    11:00 +13°C° 0 mm 2 mps 764 mmHg 66%
    12:00 +14°C° 0 mm 2 mps 764 mmHg 62%
    13:00 +14°C° 0 mm 3 mps 763 mmHg 58%
    14:00 +15°C° 0 mm 2 mps 763 mmHg 61%
    15:00 +14°C° 0 mm 2 mps 763 mmHg 64%
    16:00 +14°C° 0 mm 2 mps 763 mmHg 68%
    17:00 +13°C° 0 mm 2 mps 764 mmHg 71%
    18:00 +12°C° 0 mm 2 mps 764 mmHg 74%
    19:00 +11°C° 0 mm 1 mps 764 mmHg 77%
    20:00 +10°C° 0 mm 1 mps 765 mmHg 79%
    21:00 +10°C° 0 mm 1 mps 765 mmHg 80%
    22:00 +9°C° 0 mm 1 mps 765 mmHg 81%
    23:00 +9°C° 0 mm 1 mps 765 mmHg 81%
    Show more